Date String (YYYY-MM-DD hh:mm:ss) UTC,Instrument flags,absolute air pressure of the measurement (hPa),sample flow rate (lpm),inlet stack bypass flow (lpm),air temperature of the measurement (°C),ambient temperature measured by the external sensor (°C),aerosol sample conditioner tube jacket temperature (°C),OPC LED temperature (°C),internal box temperature (°C),relative humidity of the measurement (%),span deviation,mass concentration of particles derived from Lorenz-Mie calculation of OPC scattering (μg/m³),mass concentration of particles derived from Lorenz-Mie calculation of OPC scattering (μg/m³),mass concentration of particles derived from Lorenz-Mie calculation of OPC scattering (μg/m³)
DateTimeUTC,F1_M11,P_M11,Q1_M11,Q2_M11,T1_M11,T2_M11,T3_M11,T4_M11,T5_M11,U1_M11,ZSPAN_M11,X0_M11,X2_M11,X1_M11
2023-10-09 01:00:00,SystemResetWarning,0830.9,5.00,000.00,028.2,026.6,000.0,036.6,030.0,12.4,0000.0,0007.77,0002.45,0001.77
2023-10-09 01:01:00,SystemResetWarning,0830.9,5.00,000.00,028.3,026.8,000.0,036.7,030.0,12.5,0000.0,0007.78,0002.42,0001.77
2023-10-09 01:02:00,SystemResetWarning,0830.9,4.99,000.00,028.3,027.0,000.0,036.7,030.1,12.4,0000.0,0007.29,0002.44,0001.76
2023-10-09 01:03:00,SystemResetWarning,0830.9,4.99,000.00,028.3,027.1,000.0,036.7,030.1,12.5,0000.0,0006.98,0002.47,0001.75
2023-10-09 01:04:00,SystemResetWarning,0830.9,5.00,000.00,028.4,027.3,000.0,036.7,030.2,12.4,0000.0,0006.96,0002.46,0001.75
2023-10-09 01:05:00,SystemResetWarning,0830.9,5.00,000.00,028.4,027.4,000.0,036.7,030.2,12.4,0000.0,0005.87,0002.43,0001.75
2023-10-09 01:06:00,SystemResetWarning,0830.9,4.99,000.00,028.4,026.2,000.0,036.7,030.2,12.4,0000.0,0006.18,0002.47,0001.75
2023-10-09 01:07:00,SystemResetWarning,0830.9,5.03,000.00,028.4,024.7,000.0,036.7,030.0,12.5,0000.0,0006.41,0002.50,0001.75
2023-10-09 01:08:00,SystemResetWarning,0830.9,4.99,000.00,028.3,024.5,000.0,036.6,029.9,12.5,0000.0,0006.55,0002.52,0001.76
2023-10-09 01:09:00,SystemResetWarning,0830.9,4.99,000.00,028.2,024.8,000.0,036.6,029.7,12.6,0000.0,0005.81,0002.55,0001.77
2023-10-09 01:10:00,SystemResetWarning,0830.8,5.01,000.00,028.2,025.2,000.0,036.6,029.7,12.6,0000.0,0005.87,0002.58,0001.78
2023-10-09 01:11:00,SystemResetWarning,0830.8,5.00,000.00,028.2,025.6,000.0,036.7,029.8,12.6,0000.0,0005.83,0002.53,0001.78
2023-10-09 01:12:00,SystemResetWarning,0830.8,5.00,000.00,028.2,025.9,000.0,036.7,029.9,12.6,0000.0,0005.84,0002.57,0001.78
2023-10-09 01:13:00,SystemResetWarning,0830.8,5.00,000.00,028.2,026.2,000.0,036.7,029.9,12.6,0000.0,0006.00,0002.55,0001.79
2023-10-09 01:14:00,SystemResetWarning,0830.9,4.99,000.00,028.2,026.5,000.0,036.7,030.0,12.6,0000.0,0005.98,0002.57,0001.81
2023-10-09 01:15:00,SystemResetWarning,0830.8,4.99,000.00,028.2,026.7,000.0,036.7,030.0,12.5,0000.0,0006.94,0002.61,0001.82
2023-10-09 01:16:00,SystemResetWarning,0830.9,5.00,000.00,028.3,026.9,000.0,036.7,030.1,12.5,0000.0,0007.38,0002.64,0001.83
2023-10-09 01:17:00,SystemResetWarning,0830.9,5.00,000.00,028.3,027.1,000.0,036.7,030.1,12.5,0000.0,0007.13,0002.63,0001.83
2023-10-09 01:18:00,SystemResetWarning,0830.8,5.00,000.00,028.4,027.2,000.0,036.7,030.2,12.5,0000.0,0007.11,0002.57,0001.82
2023-10-09 01:19:00,SystemResetWarning,0830.9,5.01,000.00,028.4,027.3,000.0,036.7,030.2,12.5,0000.0,0007.80,0002.59,0001.81
2023-10-09 01:20:00,SystemResetWarning,0830.9,4.98,000.00,028.4,027.4,000.0,036.8,030.3,12.5,0000.0,0007.82,0002.57,0001.80
2023-10-09 01:21:00,SystemResetWarning,0830.9,4.99,000.00,028.4,026.1,000.0,036.8,030.2,12.4,0000.0,0007.89,0002.60,0001.80
2023-10-09 01:22:00,SystemResetWarning,0830.9,5.00,000.00,028.4,024.7,000.0,036.7,030.0,12.5,0000.0,0007.85,0002.61,0001.80
2023-10-09 01:23:00,SystemResetWarning,0830.9,5.01,000.00,028.3,024.6,000.0,036.7,029.9,12.5,0000.0,0008.11,0002.56,0001.81
2023-10-09 01:24:00,SystemResetWarning,0830.8,5.02,000.00,028.2,024.8,000.0,036.7,029.7,12.6,0000.0,0008.10,0002.57,0001.80
2023-10-09 01:25:00,SystemResetWarning,0830.8,5.00,000.00,028.2,025.2,000.0,036.7,029.7,12.6,0000.0,0008.62,0002.55,0001.80
2023-10-09 01:26:00,SystemResetWarning,0830.9,5.00,000.00,028.2,025.6,000.0,036.7,029.8,12.6,0000.0,0008.53,0002.52,0001.79
2023-10-09 01:27:00,SystemResetWarning,0830.9,4.99,000.00,028.2,025.9,000.0,036.7,029.9,12.6,0000.0,0008.92,0002.47,0001.77
2023-10-09 01:28:00,SystemResetWarning,0830.9,4.99,000.00,028.2,026.2,000.0,036.7,029.9,12.6,0000.0,0009.10,0002.45,0001.78
2023-10-09 01:29:00,SystemResetWarning,0830.9,5.00,000.00,028.2,026.5,000.0,036.7,030.0,12.6,0000.0,0009.02,0002.47,0001.79
2023-10-09 01:30:00,SystemResetWarning,0830.9,5.00,000.00,028.2,026.7,000.0,036.7,030.0,12.6,0000.0,0008.15,0002.45,0001.79
2023-10-09 01:31:00,SystemResetWarning,0830.9,5.01,000.00,028.3,026.8,000.0,036.7,030.1,12.5,0000.0,0008.38,0002.44,0001.79
2023-10-09 01:32:00,SystemResetWarning,0830.9,5.00,000.00,028.3,027.0,000.0,036.7,030.1,12.5,0000.0,0009.09,0002.43,0001.80
2023-10-09 01:33:00,SystemResetWarning,0831.0,5.00,000.00,028.3,027.1,000.0,036.7,030.2,12.5,0000.0,0009.06,0002.42,0001.80
2023-10-09 01:34:00,SystemResetWarning,0830.9,4.99,000.00,028.4,027.2,000.0,036.8,030.2,12.5,0000.0,0009.20,0002.37,0001.79
2023-10-09 01:35:00,SystemResetWarning,0830.9,5.00,000.00,028.4,027.3,000.0,036.8,030.2,12.5,0000.0,0009.36,0002.37,0001.80
2023-10-09 01:36:00,SystemResetWarning,0831.0,5.00,000.00,028.5,027.4,000.0,036.8,030.3,12.5,0000.0,0009.82,0002.35,0001.80
2023-10-09 01:37:00,SystemResetWarning,0830.9,5.00,000.00,028.5,026.0,000.0,036.8,030.2,12.4,0000.0,0010.18,0002.39,0001.80
2023-10-09 01:38:00,SystemResetWarning,0830.9,5.01,000.00,028.4,024.6,000.0,036.7,030.0,12.4,0000.0,0009.56,0002.37,0001.82
2023-10-09 01:39:00,SystemResetWarning,0830.9,5.02,000.00,028.3,024.5,000.0,036.7,029.9,12.5,0000.0,0009.58,0002.47,0001.83
2023-10-09 01:40:00,SystemResetWarning,0830.9,5.00,000.00,028.2,024.7,000.0,036.7,029.7,12.6,0000.0,0010.23,0002.53,0001.83
2023-10-09 01:41:00,SystemResetWarning,0830.9,5.00,000.00,028.2,025.1,000.0,036.7,029.7,12.6,0000.0,0010.54,0002.56,0001.84
2023-10-09 01:42:00,SystemResetWarning,0830.9,4.99,000.00,028.2,025.5,000.0,036.7,029.8,12.6,0000.0,0010.49,0002.67,0001.84
2023-10-09 01:43:00,SystemResetWarning,0830.9,4.99,000.00,028.2,025.8,000.0,036.7,029.8,12.6,0000.0,0009.75,0002.72,0001.86
2023-10-09 01:44:00,SystemResetWarning,0831.0,5.00,000.00,028.2,026.1,000.0,036.7,029.9,12.6,0000.0,0010.18,0002.73,0001.88
2023-10-09 01:45:00,SystemResetWarning,0831.0,5.01,000.00,028.2,026.4,000.0,036.7,030.0,12.6,0000.0,0010.20,0002.78,0001.91
2023-10-09 01:46:00,SystemResetWarning,0831.0,5.01,000.00,028.2,026.6,000.0,036.7,030.0,12.6,0000.0,0010.14,0002.81,0001.92
2023-10-09 01:47:00,SystemResetWarning,0830.9,4.99,000.00,028.3,026.8,000.0,036.7,030.1,12.6,0000.0,0009.80,0002.85,0001.94
2023-10-09 01:48:00,SystemResetWarning,0831.0,4.98,000.00,028.3,026.9,000.0,036.7,030.1,12.5,0000.0,0009.26,0002.86,0001.96
2023-10-09 01:49:00,SystemResetWarning,0831.0,5.00,000.00,028.3,027.1,000.0,036.8,030.1,12.5,0000.0,0009.31,0002.89,0001.96
2023-10-09 01:50:00,SystemResetWarning,0831.0,5.00,000.00,028.4,027.2,000.0,036.8,030.2,12.5,0000.0,0009.13,0002.88,0001.96
2023-10-09 01:51:00,SystemResetWarning,0831.0,5.01,000.00,028.4,027.3,000.0,036.8,030.2,12.5,0000.0,0008.41,0002.87,0001.96
2023-10-09 01:52:00,SystemResetWarning,0831.0,5.01,000.00,028.4,027.3,000.0,036.8,030.2,12.4,0000.0,0008.07,0002.82,0001.95
2023-10-09 01:53:00,SystemResetWarning,0831.0,5.00,000.00,028.5,027.4,000.0,036.8,030.3,12.4,0000.0,0007.91,0002.73,0001.95
2023-10-09 01:54:00,SystemResetWarning,0831.0,5.00,000.00,028.5,027.5,000.0,036.9,030.3,12.4,0000.0,0007.89,0002.69,0001.95
2023-10-09 01:55:00,SystemResetWarning,0831.0,4.98,000.00,028.5,026.4,000.0,036.8,030.3,12.4,0000.0,0007.64,0002.68,0001.94
2023-10-09 01:56:00,SystemResetWarning,0831.0,5.01,000.00,028.5,024.7,000.0,036.8,030.1,12.4,0000.0,0007.93,0002.71,0001.93
2023-10-09 01:57:00,SystemResetWarning,0830.9,5.01,000.00,028.4,024.4,000.0,036.7,029.9,12.5,0000.0,0007.76,0002.84,0001.94
2023-10-09 01:58:00,SystemResetWarning,0830.9,5.00,000.00,028.3,024.7,000.0,036.7,029.8,12.5,0000.0,0007.71,0002.86,0001.95
2023-10-09 01:59:00,SystemResetWarning,0831.0,5.00,000.00,028.2,025.1,000.0,036.7,029.8,12.6,0000.0,0007.09,0002.87,0001.95
